Location: Burzi?i
(45.0869°N, 16.0577°E)
Time: 11:44:06
(UTC+00:00)

CRYOSAT 2 - Pass Details

Date: 29 October 2020
Orbit: 714 x 724 km, 92.0° (Epoch: 27 November)

Event Time Altitude Azimuth Distance (km) Brightness Sun altitude
Rises 17:43:30 0° 4° (N) 3,131 7.6 -21.0°
Reaches altitude 10° 17:45:48 10° 5° (N) 2,206 6.8 -21.4°
Maximum altitude 17:50:41 90° 101° (E) 721 4.2 -22.2°
Drops below altitude 10° 17:55:32 10° 186° (S) 2,189 6.9 -23.1°
Sets 17:57:48 0° 187° (S) 3,105 7.7 -23.5°
